Regional Weather Roundup
Issued by NWS

Home | Current Version | Previous Version | Graphics & Text | Print | Product List | Glossary On
Versions: 1 2 3 4 5 6 7 8 9 10 11 12 13 14 15 16 17 18 19 20 21 22 23 24 25 26 27 28 29 30 31 32 33 34 35 36 37 38 39 40 41 42 43 44 45 46 47 48 49 50
000
ASUS43 KMKX 280910
RWRWI

WISCONSIN REGIONAL WEATHER ROUNDUP
NATIONAL WEATHER SERVICE MILWAUKEE/SULLIVAN WI
300 AM CST WED JAN 28 2015

NOTE: "FAIR" INDICATES FEW OR NO CLOUDS BELOW 12,000 FEET WITH NO
SIGNIFICANT WEATHER AND/OR OBSTRUCTIONS TO VISIBILITY.

WIZ001-002-006>008-014>016-023>028-281000-
NORTHWEST WISCONSIN

CITY           SKY/WX    TMP DP  RH WIND       PRES   REMARKS
SUPERIOR ARPT  MOCLDY    24  20  83 S5        30.09F WCI  19
ASHLAND        CLOUDY    27  21  78 VRB5      30.11F WCI  22
HAYWARD        CLOUDY    23  19  85 S6        30.10S WCI  16
SIREN          CLOUDY    26  22  85 S10       30.08F WCI  16
CUMBERLAND     CLOUDY    25  21  86 S12       30.09F WCI  14
RICE LAKE      CLOUDY    25  21  85 S10       30.13S WCI  15
CHETEK         CLOUDY    25  21  87 SE6       30.12F WCI  18
LADYSMITH      CLOUDY    25  22  87 S10       30.14F WCI  15
EAU CLAIRE     CLOUDY    26  20  77 S9        30.13F WCI  17
MENOMONIE      CLOUDY    27  22  83 SE8       30.13F WCI  19
NEW RICHMOND   CLOUDY    27  24  85 S12       30.09F WCI  17
OSCEOLA        CLOUDY    28  25  88 SE9       30.11F WCI  20
$$

WIZ003>005-009-010-017-018-281000-
NORTH CENTRAL WISCONSIN

CITY           SKY/WX    TMP DP  RH WIND       PRES   REMARKS
MANITOWISH WTR CLOUDY    22  20  94 S6        30.10F WCI  14
ARBOR VITAE    CLOUDY    23  21  91 S6        30.11F FOG     WCI  16
WOODRUFF       CLOUDY    23  21  91 S6        30.11F FOG     WCI  16
RHINELANDER    CLOUDY    22  20  92 S7        30.13S FOG     WCI  13
EAGLE RIVER    CLOUDY    22  19  87 S5        30.11F WCI  16
LAND O LAKES   CLOUDY    22  21  93 S3        30.12S
PHILLIPS       CLOUDY    23  21  93 S9        30.11F FOG     WCI  13
TOMAHAWK       CLOUDY    22  21  96 CALM      30.14S FOG
MEDFORD        CLOUDY    23  21  93 S8        30.13F FOG     WCI  14
MERRILL        CLOUDY    24  22  93 S3        30.15S
$$

WIZ029-030-035-036-043>047-281000-
CENTRAL WISCONSIN

CITY           SKY/WX    TMP DP  RH WIND       PRES   REMARKS
WAUSAU         CLOUDY    23  19  85 SE8       30.15F WCI  14
MOSINEE        CLOUDY    23  21  93 SE7       30.17F WCI  15
MARSHFIELD     CLOUDY    24  21  88 S6        30.15F FOG     WCI  17
STEVENS POINT  CLOUDY    23  18  81 SE3       30.18S
WAUPACA        CLOUDY    25  19  78 E5        30.22F WCI  19
WAUTOMA        CLOUDY    24  21  88 SE6       30.22S WCI  17
WISC RAPIDS    CLOUDY    24  20  84 S5        30.20R WCI  18
CAMP DOUGLAS   CLOUDY    27  27 100 S7        30.17F WCI  19
$$

WIZ011>013-019>022-031-037>040-048>050-281000-
NORTHEAST WISCONSIN

CITY           SKY/WX    TMP DP  RH WIND       PRES   REMARKS
ANTIGO         CLOUDY    21  18  89 S7        30.15F WCI  12
SHAWANO        CLOUDY    25  18  76 CALM      30.23S
OCONTO         CLOUDY    14  13  96 CALM      30.25R
STURGEON BAY   MOCLDY    18  12  79 S3        30.26S
GREEN BAY      MOCLDY    16  13  88 S3        30.24F
MANITOWOC      PTCLDY    17  14  88 CALM      30.27R
APPLETON       MOCLDY    21  16  79 SE6       30.23F WCI  14
CLINTONVILLE   CLOUDY    23  18  80 SE5       30.22F WCI  17
OSHKOSH        PTCLDY    19  14  81 S6        30.23F WCI  11
$$

WIZ032>034-041-042-053>061-281000-
SOUTHWEST WISCONSIN

CITY           SKY/WX    TMP DP  RH WIND       PRES   REMARKS
LA CROSSE      CLOUDY    28  22  78 S14       30.17F WCI  17
SPARTA         CLOUDY    26  22  85 S8        30.19S WCI  18
VIROQUA        CLOUDY    25  25 100 S10       30.14F WCI  14
BOSCOBEL       CLOUDY    28  22  78 VRB6      30.20F WCI  22
PRAIRIE DU CHI CLOUDY    27  22  82 SE7       30.19F FOG     WCI  19
PLATTEVILLE    CLOUDY    27  24  87 SE12      30.18F WCI  17
$$

WIZ056-057-062-063-064-067-068-281000-
SOUTH CENTRAL WISCONSIN

CITY           SKY/WX    TMP DP  RH WIND       PRES   REMARKS
REEDSBURG      CLOUDY    27  24  88 S7        30.19F WCI  19
BARABOO/DELLS  CLOUDY    26  23  88 S9        30.19F FOG     WCI  17
LONE ROCK      CLOUDY    28  22  78 S7        30.21F WCI  21
MINERAL POINT  MOCLDY    27  23  86 S3        30.18F FOG
MADISON        CLOUDY    25  19  78 S10       30.22S WCI  15
MIDDLETON      CLOUDY    27  21  78 S6        30.21F WCI  20
WATERTOWN      CLOUDY    23  19  85 SE3       30.23F
MONROE         MOCLDY    21  19  93 S8        30.20F WCI  12
JANESVILLE     CLOUDY    27  21  80 S7        30.23S WCI  19
$$

WIZ051-052-058>065-066-070>072-281000-
SOUTHEAST WISCONSIN

CITY           SKY/WX    TMP DP  RH WIND       PRES   REMARKS
MILWAUKEE      PTCLDY    24  16  71 CALM      30.27R
WAUKESHA       CLOUDY    21  18  86 CALM      30.25F
MILWAUKEE/TIMM PTCLDY    23  18  80 CALM      30.26F
RACINE         PTCLDY    23  17  78 W3        30.29R
BURLINGTON     PTCLDY    19  16  87 CALM      30.26S
KENOSHA        PTCLDY    20  16  84 CALM      30.26S
FOND DU LAC    PTCLDY    21  15  78 S5        30.24F WCI  15
SHEBOYGAN      PTCLDY    18  16  92 CALM      30.26R
WEST BEND      PTCLDY    21  18  86 CALM      30.24F
JUNEAU         CLOUDY    23  18  82 SE7       30.24F WCI  14
$$

LSZ147-162-281000-
LAKE SUPERIOR

STATION/POSITION TIME  TEMP    WIND        PRES    WAVE
                       AIR SEA DIR/SP/G            HT/PER
                 (UTC) (F)     (DEG/KT/KT) (MB)    (FT/S)
DEVILS ISLAND    0900   29     170/  6/  8 1021.0F
PORT WING        0800   29     170/  5/  9 1020.0F
SAXON HARBOR     0800   28      CALM  /  4 1020.7R
$$

LMZ867-665-643>646-281000-
LAKE MICHIGAN

STATION/POSITION TIME  TEMP    WIND        PRES    WAVE
                       AIR SEA DIR/SP/G            HT/PER
                 (UTC) (F)     (DEG/KT/KT) (MB)    (FT/S)
NORTHPORT PIER   0904   17     200/  1/  5 1024.0F
SISTER BAY       0813   18        CALM       N/A
KEWAUNEE LAKESHO 0800   22     280/  1/  3 1023.7F
SHEBOYGAN LAKESH 0900   26     230/  1/  1 1026.2R
PORT WASHINGTON  0800   26        CALM     1025.7
MILWAUKEE LAKESH 0800   28     280/  2/  2   N/A
KENOSHA   LAKESH 0900   24     270/  3/  4 1025.1S
$$

TC  - TEMPERATURE IN CELSIUS
VSB - VISIBILITY IN STATUTE MILES
WCI - WIND CHILL INDEX
HX  - HEAT INDEX



USA.gov is the U.S. government's official web portal to all federal, state and local government web resources and services.